Terug naar catalogus

WILDFIRE 8

ActiefWetenschapPO
NORAD 57768·PAYLOAD·🇺🇸 United States

Gelanceerd Sep 2, 2023 vanaf Vandenberg Space Force Base

Loading…

Volgende Passages (komende 24 uur)

TLE

VersSource: Space-Track

Epoch: Sep 14, 2026, 08:50 UTC

1 57768U 23133M   26257.36814000  .00000077  00000-0  57724-4 0  9992
2 57768  80.9919 281.2908 0006976 126.8818 233.2978 13.85454869153380

Volg WILDFIRE 8 in realtime met AllMySat

Download on the App Store